Afton, WI

7:28 AM CST on February 19, 2017 (GMT -0600)
Rock County

Weather History for KJVL - February, 2014

Change the Weather History Date:

Thursday, February 27, 2014

  Actual Average Record
Temperature  
Mean Temperature 8 °F -  
Max Temperature 15 °F 33 °F 57 °F (2016)
Min Temperature 0 °F 19 °F -9 °F (2015)
Degree Days  
Heating Degree Days 58    
Moisture  
Dew Point -10 °F    
Average Humidity 50    
Maximum Humidity 79    
Minimum Humidity 31    
Precipitation  
Precipitation 0.00 in - - ()
Sea Level Pressure  
Sea Level Pressure 29.99 in    
Wind  
Wind Speed 15 mph (NW)    
Max Wind Speed 25 mph    
Max Gust Speed 33 mph    
Visibility 10 miles    
Events Snow    
Averages and records for this station are not official NWS values.
T = Trace of Precipitation, MM = Missing Value Source: NWS Daily Summary

Daily Weather History Graph

Daily Weather History Graph

Search for Another Location

Airport or City:

Trip Planner

Search our weather history database for the weather conditions in past years. The results will help you decide how hot, cold, wet, or windy it might be!

Date:

Astronomy

Feb. 27, 2014 Rise Set
Actual Time 6:34 AM CST 5:43 PM CST
Civil Twilight 6:06 AM CST 6:11 PM CST
Nautical Twilight 5:33 AM CST 6:44 PM CST
Astronomical Twilight 5:01 AM CST 7:17 PM CST
Moon 5:09 AM CST (2/27) 4:07 PM CST (2/27)
Length of Visible Light 12h 05m
Length of Day
11h 08m
Waning Crescent, 4% of the Moon is Illuminated
Feb 27
Waning Crescent
Mar 1
New
Mar 8
First Quarter
Mar 16
Full
Mar 23
Last Quarter

Hourly Weather History & Observations

Time (CST) Temp. Windchill Dew Point Humidity Pressure Visibility Wind Dir Wind Speed Gust Speed Precip Events Conditions
12:15 AM 15.8 °F -1.9 °F 5.0 °F 62% 29.63 in 10.0 mi WNW 21.9 mph 26.5 mph N/A   Scattered Clouds
12:35 AM 14.0 °F -5.1 °F 5.0 °F 67% 29.65 in 10.0 mi WNW 24.2 mph 31.1 mph N/A   Clear
12:55 AM 14.0 °F -3.9 °F 8.6 °F 79% 29.68 in 1.2 mi NW 20.7 mph 33.4 mph N/A Snow Light Snow
1:15 AM 14.0 °F -3.4 °F 3.2 °F 62% 29.69 in 10.0 mi NNW 19.6 mph 27.6 mph N/A   Overcast
1:35 AM 12.2 °F -3.7 °F -0.4 °F 57% 29.71 in 10.0 mi NW 15.0 mph - N/A   Mostly Cloudy
1:55 AM 12.2 °F -6.7 °F -4.0 °F 48% 29.71 in 10.0 mi NW 21.9 mph 28.8 mph N/A   Scattered Clouds
2:15 AM 10.4 °F -7.2 °F -5.8 °F 48% 29.73 in 10.0 mi NW 17.3 mph - N/A   Clear
2:35 AM 10.4 °F -6.6 °F -5.8 °F 48% 29.74 in 10.0 mi NW 16.1 mph 21.9 mph N/A   Clear
2:55 AM 10.4 °F -4.8 °F -5.8 °F 48% 29.76 in 10.0 mi NW 12.7 mph - N/A   Clear
3:15 AM 8.6 °F -12.3 °F -5.8 °F 52% 29.77 in 10.0 mi NW 24.2 mph 31.1 mph N/A   Clear
3:35 AM 8.6 °F -12.3 °F -13.0 °F 37% 29.78 in 10.0 mi NW 24.2 mph 31.1 mph N/A   Clear
3:55 AM 8.6 °F -9.5 °F -11.2 °F 40% 29.80 in 10.0 mi NW 17.3 mph - N/A   Clear
4:15 AM 6.8 °F -13.4 °F -9.4 °F 48% 29.82 in 10.0 mi NNW 20.7 mph 26.5 mph N/A   Clear
4:35 AM 5.0 °F -14.7 °F -9.4 °F 52% 29.84 in 10.0 mi NNW 18.4 mph - N/A   Clear
5:45 AM 3.2 °F -19.9 °F -11.2 °F 51% 29.92 in 10.0 mi NNW 25.3 mph 31.1 mph N/A   Scattered Clouds
6:45 AM 1.4 °F -18.8 °F -13.0 °F 51% 29.95 in 10.0 mi NNW 17.3 mph 23.0 mph N/A   Partly Cloudy
7:45 AM 1.4 °F -17.6 °F -16.6 °F 43% 30.01 in 10.0 mi NNW 15.0 mph 20.7 mph N/A   Clear
8:45 AM 1.4 °F -19.4 °F -14.8 °F 47% 30.04 in 10.0 mi NW 18.4 mph 24.2 mph N/A   Clear
9:45 AM 3.2 °F -16.5 °F -14.8 °F 43% 30.09 in 10.0 mi NNW 17.3 mph 23.0 mph N/A   Clear
10:45 AM 3.2 °F -13.1 °F -14.8 °F 43% 30.11 in 10.0 mi NW 11.5 mph 17.3 mph N/A   Clear
11:45 AM 5.0 °F -10.8 °F -16.6 °F 36% 30.13 in 10.0 mi WNW 11.5 mph - N/A   Clear
12:45 PM 6.8 °F -8.6 °F -14.8 °F 37% 30.12 in 10.0 mi WNW 11.5 mph - N/A   Clear
1:45 PM 6.8 °F -8.6 °F -18.4 °F 31% 30.12 in 10.0 mi WNW 11.5 mph - N/A   Clear
2:45 PM 8.6 °F -3.7 °F -14.8 °F 34% 30.13 in 10.0 mi WNW 8.1 mph - N/A   Clear
3:45 PM 8.6 °F -1.3 °F -16.6 °F 31% 30.13 in 10.0 mi WNW 5.8 mph - N/A   Clear
4:45 PM 6.8 °F -3.5 °F -14.8 °F 37% 30.13 in 10.0 mi NW 5.8 mph - N/A   Clear
5:45 PM 6.8 °F - -14.8 °F 37% 30.13 in 10.0 mi Calm Calm - N/A   Clear
6:45 PM 6.8 °F - -13.0 °F 40% 30.15 in 10.0 mi Calm Calm - N/A   Clear
7:45 PM 6.8 °F - -13.0 °F 40% 30.25 in 10.0 mi Calm Calm - N/A   Clear
8:15 PM 3.2 °F - -11.2 °F 51% 30.15 in 10.0 mi Calm Calm - N/A   Clear
8:35 PM 3.2 °F - -9.4 °F 56% 30.15 in 10.0 mi Calm Calm - N/A   Clear
8:45 PM 5.0 °F - -14.8 °F 40% 30.16 in 10.0 mi Calm Calm - N/A   Clear
8:55 PM 3.2 °F - -11.2 °F 51% 30.16 in 10.0 mi Calm Calm - N/A   Clear
9:15 PM 3.2 °F - -13.0 °F 47% 30.16 in 10.0 mi Calm Calm - N/A   Clear
9:35 PM 3.2 °F - -13.0 °F 47% 30.16 in 10.0 mi Calm Calm - N/A   Clear
9:55 PM 1.4 °F - -11.2 °F 56% 30.16 in 10.0 mi Calm Calm - N/A   Clear
10:15 PM 1.4 °F - -11.2 °F 56% 30.16 in 10.0 mi Calm Calm - N/A   Clear
10:35 PM 1.4 °F - -9.4 °F 61% 30.17 in 10.0 mi Calm Calm - N/A   Clear
10:55 PM -0.4 °F - -9.4 °F 66% 30.16 in 10.0 mi Calm Calm - N/A   Clear
11:15 PM 1.4 °F - -9.4 °F 61% 30.16 in 10.0 mi Calm Calm - N/A   Clear
11:35 PM 1.4 °F - -7.6 °F 66% 30.16 in 10.0 mi Calm Calm - N/A   Clear
11:55 PM -0.4 °F - -7.6 °F 72% 30.16 in 10.0 mi Calm Calm - N/A   Clear